�������l�o���
Date,Time,MP-1(��Sv/h),MP-2(��Sv/h),MP-3(��Sv/h),MP-4(��Sv/h),MP-5(��Sv/h),MP-6(��Sv/h),MP-7(��Sv/h),MP-8(��Sv/h),����,����(m/s),���J
2020/07/14,00:00,0.660,0.936,0.594,1.130,0.807,0.392,0.670,0.630,��,6.2,��
2020/07/14,00:10,0.658,0.936,0.595,1.131,0.807,0.392,0.668,0.629,��,5.4,��
2020/07/14,00:20,0.658,0.938,0.595,1.132,0.808,0.392,0.666,0.629,��,4.8,��
2020/07/14,00:30,0.656,0.936,0.596,1.131,0.808,0.394,0.667,0.631,��,4.2,��
2020/07/14,00:40,0.657,0.936,0.597,1.130,0.805,0.394,0.668,0.629,��,4.2,��
2020/07/14,00:50,0.656,0.935,0.595,1.131,0.808,0.393,0.667,0.630,��,3.3,�L
2020/07/14,01:00,0.655,0.935,0.596,1.130,0.808,0.394,0.667,0.630,��쓌,3.4,�L
2020/07/14,01:10,0.657,0.935,0.597,1.131,0.808,0.395,0.668,0.630,��,3.5,�L
2020/07/14,01:20,0.655,0.937,0.595,1.130,0.806,0.392,0.667,0.628,��,4.1,�L
2020/07/14,01:30,0.657,0.935,0.595,1.132,0.806,0.393,0.667,0.629,��,4.0,�L
2020/07/14,01:40,0.656,0.934,0.595,1.130,0.805,0.393,0.666,0.628,��,3.7,�L
2020/07/14,01:50,0.656,0.933,0.595,1.130,0.808,0.391,0.667,0.629,��,4.1,�L
2020/07/14,02:00,0.657,0.936,0.596,1.132,0.805,0.392,0.665,0.630,��,4.0,�L
2020/07/14,02:10,0.656,0.935,0.596,1.129,0.807,0.394,0.666,0.629,��,3.9,�L
2020/07/14,02:20,0.658,0.933,0.594,1.131,0.807,0.393,0.666,0.631,��,3.5,�L
2020/07/14,02:30,0.658,0.935,0.595,1.130,0.808,0.394,0.665,0.630,��,4.2,�L
2020/07/14,02:40,0.659,0.936,0.595,1.132,0.805,0.394,0.665,0.628,��,3.3,�L
2020/07/14,02:50,0.658,0.933,0.594,1.130,0.807,0.393,0.665,0.629,��,3.7,�L
2020/07/14,03:00,0.660,0.931,0.596,1.131,0.807,0.393,0.666,0.630,��쓌,3.2,�L
2020/07/14,03:10,0.658,0.934,0.595,1.130,0.806,0.393,0.665,0.629,��,3.0,�L
2020/07/14,03:20,0.656,0.932,0.594,1.131,0.807,0.394,0.665,0.628,��,1.7,�L
2020/07/14,03:30,0.658,0.935,0.593,1.129,0.806,0.392,0.665,0.628,��쓌,1.4,�L
2020/07/14,03:40,0.659,0.934,0.595,1.131,0.806,0.394,0.665,0.628,��,1.9,�L
2020/07/14,03:50,0.657,0.933,0.595,1.131,0.808,0.392,0.664,0.628,��쐼,1.9,�L
2020/07/14,04:00,0.658,0.932,0.594,1.128,0.807,0.392,0.666,0.629,��쐼,1.7,�L
2020/07/14,04:10,0.657,0.934,0.595,1.130,0.807,0.392,0.665,0.628,��,2.0,�L
2020/07/14,04:20,0.657,0.931,0.595,1.129,0.807,0.393,0.666,0.629,��쓌,1.7,�L
2020/07/14,04:30,0.656,0.931,0.594,1.131,0.807,0.393,0.665,0.628,��,1.7,�L
2020/07/14,04:40,0.657,0.931,0.594,1.131,0.805,0.392,0.665,0.630,��쐼,2.0,�L
2020/07/14,04:50,0.657,0.932,0.593,1.131,0.805,0.392,0.667,0.628,��쐼,2.6,�L
2020/07/14,05:00,0.655,0.931,0.593,1.131,0.805,0.392,0.663,0.628,��,2.3,�L
2020/07/14,05:10,0.657,0.931,0.592,1.128,0.805,0.393,0.664,0.628,��,2.3,�L
2020/07/14,05:20,0.655,0.929,0.593,1.126,0.804,0.392,0.664,0.626,��,1.9,�L
2020/07/14,05:30,0.653,0.928,0.591,1.130,0.801,0.391,0.663,0.627,��,1.4,�L
2020/07/14,05:40,0.653,0.924,0.591,1.125,0.802,0.392,0.664,0.626,��,1.5,�L
2020/07/14,05:50,0.651,0.925,0.590,1.122,0.799,0.391,0.662,0.625,��,1.7,�L
2020/07/14,06:00,0.652,0.922,0.590,1.121,0.798,0.392,0.660,0.623,��,2.0,�L
2020/07/14,06:10,0.652,0.918,0.590,1.119,0.796,0.391,0.660,0.624,��,2.6,�L
2020/07/14,06:20,0.652,0.917,0.588,1.119,0.791,0.391,0.660,0.621,��,2.6,�L
2020/07/14,06:30,0.649,0.913,0.590,1.117,0.793,0.391,0.658,0.623,��쓌,2.0,�L
2020/07/14,06:40,0.648,0.913,0.588,1.114,0.791,0.389,0.659,0.621,��쓌,2.0,�L
2020/07/14,06:50,0.649,0.911,0.588,1.112,0.790,0.390,0.658,0.621,��,1.1,�L
2020/07/14,07:00,0.645,0.908,0.586,1.109,0.790,0.391,0.655,0.621,���쐼,1.5,�L
2020/07/14,07:10,0.644,0.906,0.586,1.104,0.785,0.389,0.655,0.621,��,1.5,�L
2020/07/14,07:20,0.643,0.905,0.585,1.102,0.781,0.388,0.656,0.619,��,1.2,�L
2020/07/14,07:30,0.642,0.901,0.582,1.097,0.781,0.387,0.652,0.617,��,1.4,�L
2020/07/14,07:40,0.641,0.903,0.582,1.094,0.781,0.387,0.652,0.617,�k,0.6,�L
2020/07/14,07:50,0.641,0.899,0.581,1.091,0.778,0.386,0.654,0.615,�k�k��,1.5,�L
2020/07/14,08:00,0.640,0.898,0.579,1.086,0.776,0.386,0.650,0.615,���쓌,2.3,�L
2020/07/14,08:10,0.638,0.894,0.579,1.087,0.776,0.386,0.650,0.616,-,CALM,�L
2020/07/14,08:20,0.640,0.896,0.580,1.087,0.775,0.384,0.651,0.614,-,CALM,�L
2020/07/14,08:30,0.639,0.895,0.579,1.087,0.774,0.387,0.648,0.616,-,CALM,�L
2020/07/14,08:40,0.638,0.890,0.577,1.085,0.773,0.385,0.650,0.615,��,2.0,�L
2020/07/14,08:50,0.640,0.894,0.579,1.084,0.776,0.385,0.647,0.615,���쓌,2.5,�L
2020/07/14,09:00,0.638,0.893,0.579,1.086,0.776,0.385,0.647,0.616,���쓌,2.5,�L
2020/07/14,09:10,0.640,0.893,0.579,1.088,0.773,0.385,0.649,0.616,��,1.4,�L
2020/07/14,09:20,0.640,0.890,0.576,1.087,0.774,0.386,0.648,0.615,-,CALM,�L
2020/07/14,09:30,0.639,0.890,0.577,1.088,0.773,0.385,0.647,0.616,���쓌,3.3,�L
2020/07/14,09:40,0.640,0.888,0.579,1.087,0.772,0.384,0.648,0.614,���쓌,3.6,�L
2020/07/14,09:50,0.640,0.889,0.576,1.091,0.772,0.386,0.649,0.617,���쓌,2.5,�L
2020/07/14,10:00,0.637,0.890,0.578,1.086,0.771,0.383,0.649,0.614,�쓌,2.6,�L
2020/07/14,10:10,0.639,0.888,0.578,1.087,0.772,0.383,0.648,0.615,�쓌,1.9,�L
2020/07/14,10:20,0.638,0.888,0.578,1.087,0.770,0.385,0.647,0.612,�쓌,1.2,�L
2020/07/14,10:30,0.637,0.891,0.576,1.085,0.771,0.384,0.647,0.612,���쓌,1.2,�L
2020/07/14,10:40,0.640,0.888,0.576,1.087,0.770,0.384,0.648,0.614,�k��,1.2,�L
2020/07/14,10:50,0.637,0.887,0.575,1.082,0.769,0.383,0.649,0.615,�k��,1.7,�L
2020/07/14,11:00,0.639,0.888,0.574,1.082,0.768,0.384,0.647,0.613,���k��,1.2,�L
2020/07/14,11:10,0.637,0.885,0.575,1.080,0.769,0.383,0.645,0.614,�k��,1.5,�L
2020/07/14,11:20,0.637,0.886,0.576,1.083,0.767,0.383,0.647,0.614,�k�k��,2.0,�L
2020/07/14,11:30,0.637,0.889,0.577,1.083,0.768,0.385,0.648,0.613,�k�k��,2.2,�L
2020/07/14,11:40,0.637,0.888,0.578,1.084,0.769,0.384,0.647,0.615,�k�k��,2.9,�L
2020/07/14,11:50,0.640,0.890,0.577,1.085,0.770,0.386,0.649,0.614,�k�k��,2.8,�L
2020/07/14,12:00,0.640,0.892,0.580,1.087,0.771,0.384,0.649,0.615,�k�k��,2.5,�L
2020/07/14,12:10,0.641,0.894,0.578,1.088,0.771,0.384,0.649,0.615,�k�k��,2.6,�L
2020/07/14,12:20,0.641,0.895,0.577,1.089,0.771,0.384,0.648,0.617,�k�k��,1.9,�L
2020/07/14,12:30,0.638,0.896,0.576,1.091,0.772,0.386,0.649,0.615,�k,2.0,�L
2020/07/14,12:40,0.639,0.895,0.576,1.087,0.770,0.386,0.650,0.613,�k,1.5,�L
2020/07/14,12:50,0.640,0.893,0.577,1.088,0.771,0.385,0.649,0.615,�k,1.7,�L
2020/07/14,13:00,0.640,0.894,0.579,1.092,0.769,0.385,0.649,0.616,�k,2.0,�L
2020/07/14,13:10,0.639,0.895,0.579,1.090,0.770,0.385,0.651,0.616,�k,1.4,�L
2020/07/14,13:20,0.640,0.893,0.579,1.088,0.771,0.384,0.649,0.615,�k�k��,1.4,�L
2020/07/14,13:30,0.639,0.895,0.579,1.090,0.770,0.385,0.650,0.615,�k�k��,1.5,�L
2020/07/14,13:40,0.641,0.891,0.577,1.090,0.770,0.386,0.650,0.615,�k�k��,1.7,�L
2020/07/14,13:50,0.641,0.893,0.577,1.087,0.769,0.386,0.650,0.615,�k�k��,2.6,�L
2020/07/14,14:00,0.640,0.891,0.580,1.087,0.766,0.386,0.649,0.616,�k�k��,2.6,�L
2020/07/14,14:10,0.640,0.892,0.579,1.083,0.770,0.384,0.650,0.615,�k�k��,2.6,�L
2020/07/14,14:20,0.641,0.890,0.578,1.082,0.769,0.385,0.648,0.616,�k�k��,2.6,�L
2020/07/14,14:30,0.638,0.892,0.579,1.080,0.768,0.387,0.648,0.617,�k,3.4,�L
2020/07/14,14:40,0.639,0.890,0.579,1.083,0.767,0.387,0.650,0.616,�k,2.6,�L
2020/07/14,14:50,0.642,0.892,0.579,1.083,0.769,0.386,0.649,0.614,�k�k��,3.3,�L
2020/07/14,15:00,0.640,0.894,0.579,1.084,0.770,0.385,0.649,0.614,�k,2.8,�L
2020/07/14,15:10,0.640,0.894,0.578,1.083,0.767,0.386,0.651,0.613,�k,3.9,�L
2020/07/14,15:20,0.644,0.894,0.580,1.084,0.768,0.386,0.649,0.615,�k,3.7,�L
2020/07/14,15:30,0.644,0.898,0.579,1.085,0.768,0.385,0.651,0.616,�k,4.8,�L
2020/07/14,15:40,0.642,0.896,0.579,1.086,0.769,0.384,0.652,0.615,�k,4.8,�L
2020/07/14,15:50,0.642,0.897,0.578,1.087,0.771,0.384,0.651,0.615,�k,4.1,�L
2020/07/14,16:00,0.642,0.898,0.577,1.090,0.770,0.385,0.652,0.615,�k,4.4,�L
2020/07/14,16:10,0.644,0.897,0.579,1.089,0.769,0.384,0.651,0.616,�k�k��,4.4,�L
2020/07/14,16:20,0.642,0.899,0.578,1.089,0.771,0.384,0.651,0.617,�k�k��,2.6,�L
2020/07/14,16:30,0.643,0.897,0.580,1.087,0.771,0.384,0.653,0.618,�k��,4.0,�L
2020/07/14,16:40,0.641,0.899,0.580,1.088,0.770,0.385,0.652,0.616,�k�k��,4.8,�L
2020/07/14,16:50,0.643,0.898,0.582,1.090,0.770,0.386,0.653,0.616,�k�k��,5.6,�L
2020/07/14,17:00,0.643,0.895,0.578,1.088,0.769,0.385,0.652,0.616,�k�k��,6.4,�L
2020/07/14,17:10,0.641,0.895,0.579,1.088,0.769,0.385,0.651,0.616,�k�k��,7.6,�L
2020/07/14,17:20,0.641,0.895,0.580,1.088,0.771,0.386,0.653,0.617,�k�k��,8.5,�L
2020/07/14,17:30,0.641,0.895,0.576,1.086,0.766,0.385,0.650,0.615,�k�k��,7.0,�L
2020/07/14,17:40,0.640,0.893,0.579,1.081,0.769,0.385,0.652,0.617,�k�k��,7.5,�L
2020/07/14,17:50,0.640,0.896,0.580,1.084,0.767,0.384,0.650,0.617,�k�k��,7.5,�L
2020/07/14,18:00,0.641,0.894,0.579,1.084,0.771,0.383,0.651,0.616,�k�k��,7.1,�L
2020/07/14,18:10,0.639,0.894,0.578,1.088,0.769,0.383,0.651,0.616,�k�k��,8.0,�L
2020/07/14,18:20,0.640,0.897,0.577,1.086,0.770,0.383,0.650,0.616,�k�k��,7.7,�L
2020/07/14,18:30,0.640,0.896,0.578,1.088,0.769,0.382,0.650,0.615,�k�k��,8.3,�L
2020/07/14,18:40,0.639,0.896,0.579,1.089,0.769,0.382,0.650,0.616,�k�k��,8.0,�L
2020/07/14,18:50,0.637,0.895,0.576,1.090,0.767,0.381,0.651,0.619,�k�k��,7.4,�L
2020/07/14,19:00,0.636,0.895,0.576,1.090,0.769,0.382,0.649,0.616,�k�k��,8.1,�L
2020/07/14,19:10,0.636,0.896,0.577,1.089,0.769,0.382,0.651,0.617,�k�k��,7.3,�L
2020/07/14,19:20,0.639,0.895,0.576,1.092,0.768,0.382,0.652,0.616,�k�k��,8.0,�L
2020/07/14,19:30,0.639,0.893,0.576,1.089,0.768,0.382,0.649,0.618,�k�k��,7.0,�L
2020/07/14,19:40,0.638,0.895,0.575,1.091,0.770,0.382,0.650,0.618,�k�k��,7.2,�L
2020/07/14,19:50,0.637,0.894,0.574,1.090,0.770,0.382,0.650,0.617,�k�k��,6.9,�L
2020/07/14,20:00,0.636,0.898,0.577,1.091,0.769,0.380,0.647,0.617,�k�k��,6.7,�L
2020/07/14,20:10,0.635,0.897,0.577,1.091,0.769,0.381,0.651,0.617,�k�k��,6.5,�L
2020/07/14,20:20,0.635,0.896,0.576,1.089,0.770,0.381,0.649,0.615,�k�k��,7.2,�L
2020/07/14,20:30,0.636,0.895,0.577,1.090,0.769,0.381,0.651,0.617,�k�k��,5.9,�L
2020/07/14,20:40,0.638,0.896,0.576,1.090,0.769,0.381,0.648,0.615,�k�k��,4.9,�L
2020/07/14,20:50,0.636,0.895,0.577,1.090,0.768,0.381,0.648,0.616,�k�k��,6.2,�L
2020/07/14,21:00,0.636,0.896,0.577,1.092,0.768,0.381,0.650,0.615,�k�k��,6.3,�L
2020/07/14,21:10,0.636,0.898,0.575,1.092,0.770,0.383,0.650,0.617,�k�k��,6.6,��
2020/07/14,21:20,0.638,0.898,0.575,1.091,0.770,0.380,0.650,0.617,�k�k��,6.3,��
2020/07/14,21:30,0.637,0.899,0.576,1.093,0.770,0.383,0.650,0.618,�k��,7.1,��
2020/07/14,21:40,0.637,0.897,0.576,1.094,0.772,0.382,0.651,0.618,�k�k��,8.8,��
2020/07/14,21:50,0.637,0.899,0.577,1.095,0.771,0.382,0.650,0.618,�k�k��,6.9,��
2020/07/14,22:00,0.638,0.899,0.576,1.093,0.772,0.381,0.652,0.618,�k�k��,7.8,��
2020/07/14,22:10,0.638,0.899,0.577,1.097,0.773,0.381,0.651,0.619,�k�k��,7.2,��
2020/07/14,22:20,0.637,0.899,0.577,1.096,0.773,0.382,0.652,0.618,�k�k��,7.8,��
2020/07/14,22:30,0.639,0.900,0.579,1.095,0.775,0.382,0.650,0.619,�k�k��,6.4,��
2020/07/14,22:40,0.640,0.901,0.578,1.097,0.774,0.383,0.649,0.620,�k�k��,6.8,��
2020/07/14,22:50,0.639,0.901,0.578,1.096,0.774,0.382,0.652,0.620,�k�k��,8.2,��
2020/07/14,23:00,0.639,0.901,0.579,1.096,0.776,0.384,0.653,0.620,�k�k��,9.0,��
2020/07/14,23:10,0.638,0.902,0.579,1.096,0.775,0.383,0.652,0.620,�k�k��,9.5,��
2020/07/14,23:20,0.639,0.904,0.579,1.096,0.773,0.382,0.652,0.619,�k�k��,8.4,��
2020/07/14,23:30,0.638,0.902,0.578,1.099,0.776,0.383,0.650,0.618,�k�k��,7.9,�L
2020/07/14,23:40,0.638,0.902,0.579,1.098,0.776,0.382,0.652,0.620,�k�k��,9.4,��
2020/07/14,23:50,0.639,0.903,0.579,1.097,0.775,0.383,0.653,0.620,�k�k��,8.5,�L
